Weather History for KPIA - November, 2012

Change the Weather History Date:

Saturday, November 3, 2012

  Actual Average Record
Temperature  
Mean Temperature 38 °F 48 °F  
Max Temperature 46 °F 57 °F 78 °F (1987)
Min Temperature 30 °F 38 °F 11 °F (1951)
Degree Days  
Heating Degree Days 27 17  
Month to date heating degree days 69 51  
Since 1 July heating degree days 586 497  
Cooling Degree Days 0 0  
Month to date cooling degree days 0 0  
Year to date cooling degree days 1374 1039  
Moisture  
Dew Point 32 °F    
Average Humidity 75    
Maximum Humidity 92    
Minimum Humidity 58    
Precipitation  
Precipitation 0.03 in 0.10 in 1.55 in (1946)
Month to date precipitation 0.03 0.31  
Year to date precipitation 24.31 31.25  
Snow  
Snow 0.00 in 0.00 in 0.90 in (1967)
Month to date snowfall 0.0 0.0  
Since 1 July snowfall 0.0 T  
Since 1 September snowfall 0.0 T  
Snow Depth 0.00 in    
Sea Level Pressure  
Sea Level Pressure 30.18 in    
Wind  
Wind Speed 7 mph (East)    
Max Wind Speed 15 mph    
Max Gust Speed 21 mph    
Visibility 10 miles    
Events Rain    
T = Trace of Precipitation, MM = Missing Value Source: NWS Daily Summary

Daily Weather History Graph

Daily Weather History Graph

Search for Another Location

Airport or City:

Trip Planner

Search our weather history database for the weather conditions in past years. The results will help you decide how hot, cold, wet, or windy it might be!

Date:

Astronomy

Nov. 03, 2012 Rise Set
Actual Time 7:31 AM CDT 5:52 PM CDT
Civil Twilight 7:03 AM CDT 6:20 PM CDT
Nautical Twilight 6:30 AM CDT 6:53 PM CDT
Astronomical Twilight 5:58 AM CDT 7:25 PM CDT
Moon 9:32 PM CDT 11:36 AM CDT
Length of Visible Light 11h 17m
Length of Day
10h 20m
Waning Gibbous, 80% of the Moon is Illuminated
Nov 3
Waning Gibbous
Nov 6
Last Quarter
Nov 13
New
Nov 20
First Quarter
Nov 28
Full

Hourly Weather History & Observations

Time (CDT) Temp. Windchill Dew Point Humidity Pressure Visibility Wind Dir Wind Speed Gust Speed Precip Events Conditions
12:54 AM 39.9 °F 33.4 °F 30.0 °F 68% 30.14 in 10.0 mi East 10.4 mph - N/A   Mostly Cloudy
1:54 AM 39.9 °F 32.5 °F 32.0 °F 73% 30.11 in 10.0 mi East 12.7 mph 20.7 mph N/A   Mostly Cloudy
2:54 AM 41.0 °F 34.7 °F 33.1 °F 73% 30.13 in 10.0 mi East 10.4 mph - N/A   Overcast
3:54 AM 39.0 °F 34.0 °F 35.1 °F 86% 30.12 in 10.0 mi East 6.9 mph - 0.01 in Rain Light Rain
4:54 AM 39.9 °F 33.9 °F 35.1 °F 83% 30.11 in 10.0 mi East 9.2 mph - 0.00 in   Overcast
5:54 AM 39.0 °F 34.0 °F 35.1 °F 86% 30.14 in 10.0 mi East 6.9 mph - 0.02 in   Overcast
6:54 AM 39.9 °F 33.9 °F 35.1 °F 83% 30.14 in 10.0 mi East 9.2 mph - 0.00 in   Overcast
7:54 AM 39.9 °F 32.9 °F 35.1 °F 83% 30.15 in 10.0 mi ESE 11.5 mph 16.1 mph 0.00 in   Overcast
8:54 AM 39.9 °F 34.5 °F 34.0 °F 79% 30.18 in 10.0 mi East 8.1 mph - N/A   Overcast
9:54 AM 39.9 °F 33.9 °F 34.0 °F 79% 30.19 in 10.0 mi East 9.2 mph - N/A   Overcast
10:54 AM 41.0 °F 34.7 °F 33.1 °F 73% 30.20 in 10.0 mi ENE 10.4 mph - N/A   Overcast
11:54 AM 42.1 °F 36.1 °F 33.1 °F 70% 30.20 in 10.0 mi East 10.4 mph - N/A   Overcast
12:54 PM 44.1 °F 37.4 °F 34.0 °F 68% 30.17 in 10.0 mi ENE 13.8 mph - N/A   Overcast
1:54 PM 43.0 °F 37.7 °F 33.1 °F 68% 30.18 in 10.0 mi East 9.2 mph - N/A   Overcast
2:54 PM 44.1 °F 38.6 °F 33.1 °F 65% 30.17 in 10.0 mi East 10.4 mph - N/A   Overcast
3:54 PM 45.0 °F 40.6 °F 32.0 °F 60% 30.18 in 10.0 mi East 8.1 mph - N/A   Scattered Clouds
4:54 PM 45.0 °F 41.8 °F 30.9 °F 58% 30.19 in 10.0 mi ENE 5.8 mph - N/A   Clear
5:54 PM 41.0 °F 39.0 °F 30.0 °F 65% 30.20 in 10.0 mi ENE 3.5 mph - N/A   Clear
6:54 PM 39.9 °F - 30.9 °F 70% 30.21 in 10.0 mi Calm Calm - N/A   Overcast
7:54 PM 37.9 °F - 30.0 °F 73% 30.22 in 10.0 mi Calm Calm - N/A   Clear
8:54 PM 34.0 °F - 28.9 °F 82% 30.21 in 9.0 mi Calm Calm - N/A   Clear
9:54 PM 33.1 °F - 28.9 °F 85% 30.23 in 9.0 mi Calm Calm - N/A   Clear
10:54 PM 32.0 °F - 28.9 °F 88% 30.24 in 10.0 mi Calm Calm - N/A   Partly Cloudy
11:54 PM 30.9 °F - 28.0 °F 89% 30.24 in 8.0 mi Calm Calm - N/A   Scattered Clouds